TimeCDT,TemperatureF,Dew PointF,Humidity,Sea Level PressureIn,VisibilityMPH,Wind Direction,Wind SpeedMPH,Gust SpeedMPH,PrecipitationIn,Events,Conditions,WindDirDegrees,DateUTC
12:15 AM,68.0,62.6,83,30.00,10.0,SSW,5.8,-,N/A,,Overcast,210,2013-08-05 05:15:00
12:35 AM,68.0,62.6,83,30.00,10.0,SSW,4.6,-,N/A,,Mostly Cloudy,200,2013-08-05 05:35:00
12:55 AM,68.0,62.6,83,29.98,10.0,SSW,5.8,-,N/A,,Clear,210,2013-08-05 05:55:00
1:15 AM,68.0,62.6,83,29.97,10.0,South,8.1,-,N/A,,Clear,190,2013-08-05 06:15:00
1:35 AM,68.0,62.6,83,29.97,10.0,SSW,6.9,-,N/A,,Clear,200,2013-08-05 06:35:00
1:55 AM,66.2,62.6,88,29.97,10.0,SSW,6.9,-,N/A,,Scattered Clouds,200,2013-08-05 06:55:00
2:15 AM,66.2,62.6,88,29.97,10.0,SSW,5.8,-,N/A,,Clear,210,2013-08-05 07:15:00
2:35 AM,66.2,62.6,88,29.96,10.0,SW,3.5,-,N/A,,Clear,220,2013-08-05 07:35:00
2:55 AM,66.2,62.6,88,29.95,7.0,South,5.8,-,N/A,,Clear,180,2013-08-05 07:55:00
3:15 AM,66.2,64.4,94,29.94,5.0,SSW,6.9,-,N/A,,Clear,200,2013-08-05 08:15:00
3:35 AM,66.2,64.4,94,29.94,4.0,SSW,4.6,-,N/A,,Mostly Cloudy,210,2013-08-05 08:35:00
3:55 AM,66.2,64.4,94,29.94,4.0,SSW,5.8,-,N/A,,Overcast,200,2013-08-05 08:55:00
4:15 AM,66.2,64.4,94,29.93,5.0,South,8.1,-,N/A,,Overcast,190,2013-08-05 09:15:00
4:35 AM,66.2,64.4,94,29.93,5.0,SSW,8.1,-,N/A,,Overcast,200,2013-08-05 09:35:00
4:55 AM,66.2,64.4,94,29.92,4.0,SSW,8.1,-,N/A,,Overcast,210,2013-08-05 09:55:00
5:15 AM,66.2,64.4,94,29.93,4.0,South,5.8,-,N/A,,Overcast,180,2013-08-05 10:15:00
5:35 AM,66.2,64.4,94,29.93,4.0,South,4.6,-,N/A,,Overcast,190,2013-08-05 10:35:00
5:55 AM,66.2,64.4,94,29.93,4.0,SSW,6.9,-,N/A,,Overcast,210,2013-08-05 10:55:00
6:15 AM,66.2,64.4,94,29.92,3.0,SSW,6.9,-,N/A,,Overcast,200,2013-08-05 11:15:00
6:35 AM,66.2,64.4,94,29.92,2.5,SSW,6.9,-,N/A,,Overcast,200,2013-08-05 11:35:00
6:55 AM,66.2,64.4,94,29.92,1.5,SSW,8.1,-,N/A,,Overcast,200,2013-08-05 11:55:00
7:15 AM,66.2,64.4,94,29.93,1.0,SW,8.1,-,N/A,,Overcast,220,2013-08-05 12:15:00
7:35 AM,66.2,64.4,94,29.95,0.8,WSW,5.8,-,N/A,,Overcast,240,2013-08-05 12:35:00
7:55 AM,66.2,66.2,100,29.94,2.0,WSW,5.8,-,N/A,,Overcast,240,2013-08-05 12:55:00
8:15 AM,68.0,66.2,94,29.94,1.5,Calm,Calm,-,N/A,,Overcast,0,2013-08-05 13:15:00
8:35 AM,68.0,66.2,94,29.93,1.5,Calm,Calm,-,N/A,,Overcast,0,2013-08-05 13:35:00
8:55 AM,68.0,66.2,94,29.95,1.8,Calm,Calm,-,N/A,Rain,Rain,0,2013-08-05 13:55:00
9:15 AM,68.0,66.2,94,30.00,1.8,West,5.8,-,N/A,Rain,Light Rain,260,2013-08-05 14:15:00
9:35 AM,68.0,60.8,78,29.92,4.0,Calm,Calm,-,0.27,Rain,Rain,0,2013-08-05 14:35:00
9:55 AM,69.8,62.6,78,29.78,10.0,ESE,15.0,18.4,0.29,Rain,Light Rain,120,2013-08-05 14:55:00
10:15 AM,69.8,62.6,78,29.81,10.0,South,8.1,-,N/A,,Clear,180,2013-08-05 15:15:00
10:35 AM,71.6,62.6,73,29.93,10.0,WNW,15.0,33.4,N/A,,Clear,290,2013-08-05 15:35:00
10:55 AM,71.6,64.4,78,29.94,10.0,WSW,8.1,-,N/A,,Clear,250,2013-08-05 15:55:00
11:15 AM,71.6,64.4,78,29.94,10.0,WSW,3.5,-,N/A,,Clear,250,2013-08-05 16:15:00
11:35 AM,71.6,64.4,78,29.91,10.0,SSW,12.7,16.1,N/A,,Clear,200,2013-08-05 16:35:00
11:55 AM,71.6,64.4,78,29.88,10.0,South,11.5,-,N/A,,Clear,190,2013-08-05 16:55:00
12:15 PM,71.6,64.4,78,29.92,10.0,SSW,6.9,-,N/A,,Clear,200,2013-08-05 17:15:00
12:35 PM,73.4,64.4,73,29.90,10.0,SSW,9.2,-,N/A,,Clear,210,2013-08-05 17:35:00
12:55 PM,75.2,64.4,69,29.90,10.0,SSW,10.4,-,N/A,,Clear,210,2013-08-05 17:55:00
1:15 PM,77.0,64.4,65,29.89,10.0,SW,3.5,-,N/A,,Clear,220,2013-08-05 18:15:00
1:35 PM,78.8,64.4,61,29.89,10.0,SW,6.9,-,N/A,,Clear,220,2013-08-05 18:35:00
1:55 PM,78.8,66.2,65,29.89,10.0,WSW,4.6,-,N/A,,Clear,240,2013-08-05 18:55:00
2:15 PM,78.8,66.2,65,29.89,10.0,NW,8.1,-,N/A,,Scattered Clouds,310,2013-08-05 19:15:00
2:35 PM,78.8,66.2,65,29.89,10.0,NW,6.9,-,N/A,,Mostly Cloudy,320,2013-08-05 19:35:00
2:55 PM,78.8,66.2,65,29.89,10.0,WNW,11.5,16.1,N/A,,Overcast,290,2013-08-05 19:55:00
3:15 PM,80.6,68.0,65,29.89,10.0,WNW,9.2,-,N/A,,Mostly Cloudy,290,2013-08-05 20:15:00
3:35 PM,80.6,66.2,61,29.88,10.0,WNW,8.1,-,N/A,,Mostly Cloudy,300,2013-08-05 20:35:00
3:55 PM,80.6,66.2,61,29.89,10.0,West,5.8,-,N/A,,Scattered Clouds,280,2013-08-05 20:55:00
4:15 PM,80.6,66.2,61,29.88,10.0,WNW,5.8,-,N/A,,Scattered Clouds,300,2013-08-05 21:15:00
4:35 PM,80.6,66.2,61,29.88,10.0,NNW,4.6,-,N/A,,Mostly Cloudy,330,2013-08-05 21:35:00
4:55 PM,82.4,66.2,58,29.88,10.0,WNW,6.9,-,N/A,,Scattered Clouds,290,2013-08-05 21:55:00
5:15 PM,82.4,66.2,58,29.87,10.0,WNW,5.8,-,N/A,,Scattered Clouds,300,2013-08-05 22:15:00
5:35 PM,82.4,66.2,58,29.87,10.0,West,3.5,-,N/A,,Scattered Clouds,280,2013-08-05 22:35:00
5:55 PM,82.4,66.2,58,29.87,10.0,West,6.9,-,N/A,,Clear,280,2013-08-05 22:55:00
6:15 PM,82.4,68.0,62,29.87,10.0,Calm,Calm,-,N/A,,Scattered Clouds,0,2013-08-05 23:15:00
6:35 PM,82.4,66.2,58,29.86,10.0,WNW,4.6,-,N/A,,Scattered Clouds,290,2013-08-05 23:35:00
6:55 PM,82.4,66.2,58,29.86,10.0,Calm,Calm,-,N/A,,Scattered Clouds,0,2013-08-05 23:55:00
7:15 PM,80.6,66.2,61,29.86,10.0,Calm,Calm,-,N/A,,Scattered Clouds,0,2013-08-06 00:15:00
7:35 PM,80.6,66.2,61,29.87,10.0,Calm,Calm,-,N/A,,Scattered Clouds,0,2013-08-06 00:35:00
7:55 PM,78.8,68.0,69,29.87,10.0,Calm,Calm,-,N/A,,Clear,0,2013-08-06 00:55:00
8:15 PM,77.0,69.8,78,29.87,10.0,Calm,Calm,-,N/A,,Clear,0,2013-08-06 01:15:00
8:35 PM,75.2,68.0,78,29.87,10.0,Calm,Calm,-,N/A,,Scattered Clouds,0,2013-08-06 01:35:00
8:55 PM,73.4,68.0,83,29.87,10.0,Calm,Calm,-,N/A,,Scattered Clouds,0,2013-08-06 01:55:00
9:15 PM,71.6,68.0,88,29.87,10.0,Calm,Calm,-,N/A,,Clear,0,2013-08-06 02:15:00
9:35 PM,71.6,68.0,88,29.87,10.0,Calm,Calm,-,N/A,,Clear,0,2013-08-06 02:35:00
9:55 PM,69.8,66.2,88,29.87,7.0,Calm,Calm,-,N/A,,Clear,0,2013-08-06 02:55:00
10:15 PM,69.8,66.2,88,29.87,10.0,Calm,Calm,-,N/A,,Clear,0,2013-08-06 03:15:00
10:35 PM,68.0,66.2,94,29.87,7.0,Calm,Calm,-,N/A,,Clear,0,2013-08-06 03:35:00
10:55 PM,69.8,66.2,88,29.87,7.0,Calm,Calm,-,N/A,,Clear,0,2013-08-06 03:55:00
11:15 PM,66.2,64.4,94,29.87,7.0,Calm,Calm,-,N/A,,Clear,0,2013-08-06 04:15:00
11:35 PM,66.2,64.4,94,29.87,7.0,Calm,Calm,-,N/A,,Clear,0,2013-08-06 04:35:00
11:55 PM,66.2,64.4,94,29.87,7.0,Calm,Calm,-,N/A,,Clear,0,2013-08-06 04:55:00